Flag for Germany Weather past 2 weeks in Ansbach, Bavaria, Germany

Now
71 °F

Passing clouds.


Feels Like: 76 °F
Forecast: 56 / 70 °F
Wind: 9 mph from West

Location: Ansbach / Katterbach

Current Time: Aug 29, 2014 at 4:17:35 PM

Latest Report: Aug 29, 2014 at 3:58 PM


Visibility: N/A

Pressure: 30.05 "Hg

Humidity: 58%

Dew point: 55 °F

Location of AnsbachLocation

Historic Weather in Ansbach — Graph

°F

Ansbach temperature yesterday

Maximum temperature yesterday: 70 °F (at 5:58 PM)
Minimum temperature yesterday: 47 °F (at 5:58 AM)
Average temperature yesterday: 60 °F

Past Weeks' High & Low Weather Summary

 TemperatureHumidityPressure
High70 °F (Aug 28, 5:58 PM)100% (Aug 15, 1:58 AM)30.18 "Hg (Aug 15, 1:58 AM)
Low45 °F (Aug 25, 4:58 AM)40% (Aug 21, 4:58 PM)29.69 "Hg (Aug 26, 7:00 AM)
Average57 °F77%30.01 "Hg
* Reported Aug 14 2:58 PM — Aug 29 2:58 PM, Ansbach, Weather by CustomWeather, © 2014

Note: Actual official high and low records may vary slightly from our data, if they occured in-between our weather recording intervals... More about our weather records

Advertising

Ansbach weather history for previous 24 hours

 ConditionsComfort  
Time TempWeatherWind HumidityBarometerVisibility
2:58 PM
Aug 29
70 °FScattered clouds.13 mph60%30.07 "HgN/A
1:58 PM68 °FPassing clouds.12 mph65%30.07 "HgN/A
12:56 PM66 °FPartly sunny.12 mph71%30.07 "HgN/A
11:58 AM64 °FBroken clouds.8 mph78%30.07 "HgN/A
11:51 AM64 °FBroken clouds.9 mph78%30.08 "HgN/A
10:58 AM64 °FPartly sunny.10 mph73%30.07 "HgN/A
9:58 AM64 °FBroken clouds.8 mph78%30.06 "HgN/A
8:58 AM63 °FBroken clouds.7 mph83%30.05 "HgN/A
7:58 AM59 °FPartly sunny.5 mph89%30.06 "HgN/A
6:58 AM57 °FPassing clouds.6 mph94%30.06 "HgN/A
5:58 AM57 °FPassing clouds.5 mph94%30.05 "HgN/A
4:58 AM59 °FMostly cloudy.6 mph88%30.05 "HgN/A
3:58 AM58 °FOvercast.5 mph87%30.05 "HgN/A
2:58 AM59 °FPassing clouds.3 mph82%30.06 "HgN/A
1:58 AM59 °FPassing clouds.3 mph88%30.06 "HgN/A
12:58 AM61 °FPassing clouds.3 mph83%30.07 "HgN/A
11:58 PM
Aug 28
63 °FMostly cloudy.3 mph77%30.07 "HgN/A
10:58 PM62 °FOvercast.6 mph77%30.07 "HgN/A
9:58 PM64 °FOvercast.5 mph73%30.08 "HgN/A
8:58 PM64 °FScattered clouds.5 mph68%30.08 "HgN/A
7:58 PM66 °FSunny.3 mph67%30.08 "HgN/A
6:58 PM68 °FPassing clouds.7 mph61%30.08 "HgN/A
5:58 PM70 °FBroken clouds.6 mph57%30.08 "HgN/A
4:58 PM70 °FScattered clouds.7 mph60%30.08 "HgN/A
Weather by CustomWeather, © 2014

See weather overviewHow to use our weather pages